Regional Weather Roundup
Issued by NWS Goodland, KS

Home | Current Version | Previous Version | Text Only | Print | Product List | Glossary On
Versions: 1 2 3 4 5 6 7 8 9 10 11 12 13 14 15 16 17 18 19 20 21 22 23 24 25 26 27 28 29 30 31 32 33 34 35 36 37 38 39 40 41 42 43 44 45 46 47 48 49 50
000
ASUS43 KGLD 230608
RWRGLD

GOODLAND FORECAST AREA HOURLY WEATHER ROUNDUP
NATIONAL WEATHER SERVICE GOODLAND KS
1200 AM MDT THU OCT 23 2014

...OFFICIAL OBSERVATIONS...

CITY           SKY/WX    TMP DP  RH WIND       PRES   REMARKS
GOODLAND KS    CLEAR     49  45  86 S6        30.11R
HILL CITY KS   CLEAR     49  48  97 CALM      30.05F
IMPERIAL NEB   CLEAR     46  34  62 W3        30.08F
MCCOOK NEB     CLEAR     48  46  93 CALM      30.07S
AKRON CO       CLEAR     47  33  58 CALM      30.14R
BURLINGTON CO  CLEAR     46  41  82 SW3       30.12S
LIMON CO       MOCLDY    43  42  97 N3        30.17S
$$

...UNOFFICIAL OBSERVATIONS...

CITY           SKY/WX    TMP DP  RH WIND       PRES   REMARKS
COLBY KS       CLEAR     54  52  94 CALM      30.08F
GOVE KS          N/A     60  32  34 MISG        N/A
NORTON KS      FOG       48  46  93 CALM      30.04S VSB 0
SHARON SPRINGS   N/A     52  46  80 CALM        N/A
TRENTON NEB      N/A     52  32  46 CALM        N/A
KIT CARSON CO    N/A     47  40  78 CALM        N/A
YUMA CO          N/A     38  31  75 CALM        N/A
$$



USA.gov is the U.S. government's official web portal to all federal, state and local government web resources and services.